International Skating Union - Official Site

ISU World Allround Speed Skating Championships 2015
March 7 - 8, 2015

Draw | Lap Times | Index | Classification

Referee: Dan  IMMERFALL  (USA)
Starter: Darrell  HAACK  (CAN)
StartTime: EndTime: Air Temp: Ice Temp: Humidity:
13:05 13:38 16℃ -7℃ 29%
Result 5000m Ladies
Rankings as of Mar 8 2015 1:52PM
Rank: No.: Name: Nation: Time: Behind: Points:
1 7 Martina  Sábliková CZE CZE 6:51.21200m - 21.00 - (21.0)
600m - 52.86 - (31.8)
1000m - 1:24.94 - (32.0)
1400m - 1:57.45 - (32.5)
1800m - 2:29.89 - (32.4)
2200m - 3:02.30 - (32.4)
2600m - 3:34.85 - (32.5)
3000m - 4:07.52 - (32.6)
3400m - 4:40.30 - (32.7)
3800m - 5:13.05 - (32.7)
4200m - 5:45.90 - (32.8)
4600m - 6:18.89 - (32.9)
5000m - 6:51.21 - (32.3)
41.121
2 15 Linda  de Vries NED NED 7:03.43200m - 20.65 - (20.6)
600m - 53.52 - (32.8)
1000m - 1:26.34 - (32.8)
1400m - 1:59.66 - (33.3)
1800m - 2:33.03 - (33.3)
2200m - 3:06.36 - (33.3)
2600m - 3:39.50 - (33.1)
3000m - 4:12.79 - (33.2)
3400m - 4:46.19 - (33.4)
3800m - 5:19.84 - (33.6)
4200m - 5:53.85 - (34.0)
4600m - 6:28.37 - (34.5)
5000m - 7:03.43 - (35.0)
12.22 42.343
3 17 Ireen  Wüst NED NED 7:03.99200m - 21.32 - (21.3)
600m - 53.38 - (32.0)
1000m - 1:25.75 - (32.3)
1400m - 1:58.15 - (32.4)
1800m - 2:30.96 - (32.8)
2200m - 3:03.98 - (33.0)
2600m - 3:37.59 - (33.6)
3000m - 4:11.23 - (33.6)
3400m - 4:45.18 - (33.9)
3800m - 5:19.23 - (34.0)
4200m - 5:53.76 - (34.5)
4600m - 6:28.83 - (35.0)
5000m - 7:03.99 - (35.1)
12.78 42.399
4 18 Ida  Njåtun NOR NOR 7:04.00200m - 20.44 - (20.4)
600m - 52.90 - (32.4)
1000m - 1:26.39 - (33.4)
1400m - 2:00.36 - (33.9)
1800m - 2:33.90 - (33.5)
2200m - 3:07.65 - (33.7)
2600m - 3:41.21 - (33.5)
3000m - 4:15.17 - (33.9)
3400m - 4:49.00 - (33.8)
3800m - 5:22.74 - (33.7)
4200m - 5:56.38 - (33.6)
4600m - 6:30.25 - (33.8)
5000m - 7:04.00 - (33.7)
12.79 42.400
5 2 Ivanie  Blondin CAN CAN 7:06.99200m - 21.51 - (21.5)
600m - 55.13 - (33.6)
1000m - 1:28.82 - (33.6)
1400m - 2:03.03 - (34.2)
1800m - 2:36.87 - (33.8)
2200m - 3:10.62 - (33.7)
2600m - 3:44.25 - (33.6)
3000m - 4:17.90 - (33.6)
3400m - 4:51.65 - (33.7)
3800m - 5:25.49 - (33.8)
4200m - 5:59.18 - (33.6)
4600m - 6:32.93 - (33.7)
5000m - 7:06.99 - (34.0)
15.78 42.699
6 16 Marije  Joling NED NED 7:08.80200m - 20.54 - (20.5)
600m - 53.45 - (32.9)
1000m - 1:26.80 - (33.3)
1400m - 2:00.26 - (33.4)
1800m - 2:34.49 - (34.2)
2200m - 3:08.88 - (34.3)
2600m - 3:43.28 - (34.4)
3000m - 4:18.15 - (34.8)
3400m - 4:53.03 - (34.8)
3800m - 5:27.80 - (34.7)
4200m - 6:02.30 - (34.5)
4600m - 6:35.82 - (33.5)
5000m - 7:08.80 - (32.9)
17.59 42.880
7 24 Heather  Richardson USA USA 7:20.27200m - 19.35 - (19.3)
600m - 50.63 - (31.2)
1000m - 1:23.68 - (33.0)
1400m - 1:57.61 - (33.9)
1800m - 2:31.47 - (33.8)
2200m - 3:05.62 - (34.1)
2600m - 3:40.32 - (34.7)
3000m - 4:15.20 - (34.8)
3400m - 4:51.00 - (35.8)
3800m - 5:27.79 - (36.7)
4200m - 6:05.97 - (38.1)
4600m - 6:44.27 - (38.3)
5000m - 7:20.27 - (36.0)
29.06 44.027
8 3 Kali  Christ CAN CAN 7:24.10200m - 22.37 - (22.3)
600m - 56.90 - (34.5)
1000m - 1:31.56 - (34.6)
1400m - 2:06.53 - (34.9)
1800m - 2:41.46 - (34.9)
2200m - 3:16.46 - (35.0)
2600m - 3:51.07 - (34.6)
3000m - 4:25.78 - (34.7)
3400m - 5:00.76 - (34.9)
3800m - 5:35.90 - (35.1)
4200m - 6:11.49 - (35.5)
4600m - 6:47.42 - (35.9)
5000m - 7:24.10 - (36.6)
32.89 44.410